Regional Weather Roundup
Issued by NWS Wilmington, NC

Home | Current Version | Previous Version | Text Only | Print | Product List | Glossary On
Versions: 1 2 3 4 5 6 7 8 9 10 11 12 13 14 15 16 17 18 19 20 21 22 23 24 25 26 27 28 29 30 31 32 33 34 35 36 37 38 39 40 41 42 43 44 45 46 47 48 49
000
ASUS42 KILM 041513
RWRILM
RWRILM
REGIONAL HOURLY WEATHER ROUNDUP
NATIONAL WEATHER SERVICE WILMINGTON NC
1100 AM EDT TUE AUG 04 2015

NOTE: "FAIR" INDICATES FEW OR NO CLOUDS BELOW 12,000 FEET WITH NO
SIGNIFICANT WEATHER AND/OR OBSTRUCTIONS TO VISIBILITY.

...............WFO WILMINGTON COUNTY WARNING AREA...............

......COASTAL NC AND SC COUNTIES......

CITY           SKY/WX    TMP DP  RH WIND       PRES   REMARKS
WILMINGTON     CLOUDY    80  74  81 S14G22    30.00R
N MYRTLE BEACH LGT RAIN  78  75  90 SE15G25   29.93F FOG
MYRTLE BEACH   PTSUNNY   81  73  78 MISG      29.94F

......INLAND NC AND SC COUNTIES.......

CITY           SKY/WX    TMP DP  RH WIND       PRES   REMARKS
LUMBERTON      PTSUNNY   87  74  64 SE12      29.99S HX  95
ELIZABETHTOWN  PTSUNNY   81  78  91 E3        30.01S
WHITEVILLE     CLOUDY    80  76  87 E7        29.98S
FLORENCE       MOSUNNY   86  73  65 NE12      29.98R HX  93
DARLINGTON     MOSUNNY   84  72  65 NE8       30.00S

....................REST OF NORTH CAROLINA......................

.........EASTERN NC.........

CITY           SKY/WX    TMP DP  RH WIND       PRES   REMARKS
CAPE HATTERAS  CLOUDY    81  76  84 S6        30.06R
JACKSONVILLE   CLOUDY    81  72  74 S9        30.03R
MOREHEAD CITY  CLOUDY    81  75  82 S15       30.03S
KENANSVILLE    CLOUDY   N/A N/A N/A SE6       30.03S
NEW BERN       CLOUDY    81  75  82 S7        30.05S
ELIZABETH CITY MOSUNNY   87  77  72 SW15      30.01S HX  99

.........CENTRAL NC.........

CITY           SKY/WX    TMP DP  RH WIND       PRES   REMARKS
RALEIGH DURHAM MOSUNNY   86  72  62 SW10      30.03R HX  92
ROCKY MOUNT    MOSUNNY   90  72  55 S12       30.01F HX  97
ROANOKE RAPIDS NOT AVBL
FAYETTEVILLE   MOSUNNY   86  72  62 SE9       30.00R HX  92
HOFFMAN        MOSUNNY   86  72  62 S7        30.00S HX  92

.........WESTERN NC.........

CITY           SKY/WX    TMP DP  RH WIND       PRES   REMARKS
CHARLOTTE      MOSUNNY   87  70  56 SE6       30.02S HX  92
GREENSBORO     MOSUNNY   85  70  60 S7        30.02R
HICKORY        NOT AVBL
BOONE          NOT AVBL
ASHEVILLE      NOT AVBL

.....................REST OF SOUTH CAROLINA.....................

.........EASTERN SC.........

CITY           SKY/WX    TMP DP  RH WIND       PRES   REMARKS
CHARLESTON     PTSUNNY   79  74  84 NW8       29.97R
BEAUFORT MCAS  PTSUNNY   83  75  77 NW8       29.99R HX  90
HILTON HEAD    PTSUNNY   82  77  83 MISG      30.00R HX  91

.........CENTRAL SC.........

CITY           SKY/WX    TMP DP  RH WIND       PRES   REMARKS
COLUMBIA       MOSUNNY   87  70  56 N9        29.99S HX  92
ORANGEBURG     SUNNY     85  72  65 NW9       29.99S HX  91
SUMTER SHAW    MOSUNNY   84  73  67 N8        29.97S HX  90

.........WESTERN SC.........

CITY           SKY/WX    TMP DP  RH WIND       PRES   REMARKS
GREENVILLE     NOT AVBL
ROCK HILL      SUNNY     85  72  65 VRB5      30.03R HX  91
ANDERSON       SUNNY     88  68  51 N3        30.02S HX  91
CLEMSON        NOT AVBL
GREENWOOD      SUNNY     88  70  55 W5        30.02F HX  93


...................COASTAL AND OFFSHORE REPORTS..................

................LOCAL PIERS AND NC RESERVE................


STATION/POSITION TIME  SKY/WX   TEMP    WIND        PRES    VSBY
                                AIR SEA DIR/SP/G
                 (UTC)          (F)     (DEG/KT/KT) (MB)    (MI)
JOHNY MRCER PIER 1400            81 83  160/ 19/ 24 1015.0F
NC RESRV MASNBRO NOT AVBL
OCEAN CREST PIER NOT AVBL
SPRINGMAID  PIER 1400            78 84  100/ 23/ 26 1013.5R


................COASTAL AND OFFSHORE BUOYS................


STATION/POSITION TIME  SKY/WX   TEMP    WIND        PRES    VSBY
                                AIR SEA DIR/SP/G
                 (UTC)          (F)     (DEG/KT/KT) (MB)    (MI)
DIMNDSHOAL 41025 1450            81 84  190/ 19/ 23 1017.6F
WVE H/P(F/S)=  4/ 7 WND WVE H/P(F/S)=  3/ 6 SWL H/P/D(F/S/D)=  2/170/ 7

CAPE LOOKOUT     1500            81     180/ 17/ 20 1016.7R
ONSLOW BAY 41036 NOT AVBL
5 WRITEBCH 41038 1408            82 82  180/ 21/ 27 1014.5F
MASONBORO  41110 1419               82                N/A
WVE H/P(F/S)=  6/ 5 WND WVE H/P(F/S)=  7/ 5 SWL H/P/D(F/S/D)=  2/110/11

WILM HARBR 41108 1411               83                N/A
WVE H/P(F/S)= 10/ 7 WND WVE H/P(F/S)= 10/ 7 SWL H/P/D(F/S/D)=  2/140/12

27WRITEBCH 41037 1400            78 82  180/ 25/ 31   N/A
FRYING PAN 41013 1450            80 82  160/ 25/ 31 1015.1F
WVE H/P(F/S)=  7/ 8 WND WVE H/P(F/S)=  7/ 8 SWL H/P/D(F/S/D)=  2/170/11

SUNST NRSH 41024 1408            80     160/ 25/ 37 1012.9F
CAPRS NRSH 41029 1408            79     290/ 12/ 17 1014.0R
EDISTO     41004 1450            81 83  250/ 14/ 16 1013.8R
WVE H/P(F/S)=  6/ 8 WND WVE H/P(F/S)=  5/ 7 SWL H/P/D(F/S/D)=  3/ 8



..........OFFSHORE BUOYS BEYOND 100 NM OFFSHORE...........
.....IN A TRIANGLE---HAT TO BERMUDA TO BAHAMAS TO HAT.....


STATION/POSITION TIME  SKY/WX   TEMP    WIND        PRES    VSBY
                                AIR SEA DIR/SP/G
                 (UTC)          (F)     (DEG/KT/KT) (MB)    (MI)
150E HAT   41001 1500            81 82  210/ 16/ 19 1019.1R
W BERMUDA  41048 1450            83 82  180/ 12/ 14 1021.6
WVE H/P(F/S)=  4/ 6 WND WVE H/P(F/S)=  3/ 5 SWL H/P/D(F/S/D)=  3/170/ 6

ATLANTIC S 41049 1450            84 85   80/  8/ 10 1024.1S
WVE H/P(F/S)=  4/ 8 WND WVE H/P(F/S)=  2/ 4 SWL H/P/D(F/S/D)=  3/140/ 8

E BAHAMAS  41046 1450            84 84  120/ 14/ 16 1020.9F
WVE H/P(F/S)=  6/ 8 WND WVE H/P(F/S)=  3/ 4 SWL H/P/D(F/S/D)=  5/120/ 8

NE BAHAMAS 41047 1450            85 85  170/ 12/ 14 1020.8R
WVE H/P(F/S)=  5/ 8 WND WVE H/P(F/S)=  3/ 5 SWL H/P/D(F/S/D)=  3/110/ 8

120E CANVRL41010 1420            84 84  190/ 12/ 14 1018.2R

END


USA.gov is the U.S. government's official web portal to all federal, state and local government web resources and services.